Home > Weather > Schaffhausen > Past weeks

Flag for Switzerland Past Weather in Schaffhausen, Schaffhausen, Switzerland — Yesterday and Last 2 Weeks

Now
64 °F

Mild.


Feels Like: 64 °F
Forecast: 53 / 78 °F
Wind: 2 mph from Southeast

Location: Zurich-Kloten

Current Time: Jun 29, 2016 at 12:46:00 AM

Latest Report: Jun 29, 2016 at 12:00 AM


Visibility: N/A

Pressure: 29.99 "Hg

Humidity: 78%

Dew Point: 57 °F

Location of SchaffhausenLocation

Past Weather in Schaffhausen — Graph

°F

Schaffhausen Temperature Yesterday

Maximum temperature yesterday: 78 °F (at 6:00 PM)
Minimum temperature yesterday: 56 °F (at 6:00 AM)
Average temperature yesterday: 66 °F

High & Low Weather Summary for the Past Weeks

 TemperatureHumidityPressure
High90 °F (Jun 23, 5:00 PM)99% (Jun 20, 2:00 AM)30.27 "Hg (Jun 20, 2:00 AM)
Low50 °F (Jun 18, 3:00 AM)37% (Jun 27, 5:00 PM)29.60 "Hg (Jun 16, 5:00 AM)
Average63 °F78%30.00 "Hg
* Reported Jun 13 11:00 PM — Jun 28 11:00 PM, Schaffhausen, Weather by CustomWeather, © 2016

Note: Actual official high and low records may vary slightly from our data, if they occured in-between our weather recording intervals... More about our weather records

Advertising

Schaffhausen Weather History for the Previous 24 Hours

Scroll right to see more
 ConditionsComfort  
Time TempWeatherWind HumidityBarometerVisibility
11:00 PM
Tue, Jun 28
63 °FPassing clouds.1 mph78%29.99 "Hg22 mi
10:00 PM68 °FMild.3 mph67%29.98 "HgN/A
9:00 PM70 °FMild.8 mph60%29.96 "HgN/A
8:00 PM75 °FPassing clouds.7 mph50%29.94 "Hg22 mi
6:00 PM78 °FWarm.5 mph44%29.94 "HgN/A
5:00 PM77 °FPassing clouds.5 mph40%29.96 "Hg25 mi
4:00 PM76 °FMild.5 mph41%29.98 "HgN/A
3:00 PM76 °FMild.3 mph43%29.99 "HgN/A
2:00 PM75 °FScattered clouds.6 mph47%30.01 "Hg25 mi
1:00 PM74 °FMild.3 mph47%30.03 "HgN/A
12:00 PM71 °FMild.5 mph56%30.06 "HgN/A
11:00 AM69 °FScattered clouds.2 mph59%30.08 "Hg25 mi
10:00 AM67 °FMild.3 mph64%30.10 "HgN/A
9:00 AM65 °FMild.3 mph67%30.11 "HgN/A
8:00 AM62 °FScattered clouds.1 mph71%30.13 "Hg22 mi
7:00 AM60 °FCool.2 mph79%30.14 "HgN/A
6:00 AM56 °FCool.3 mph86%30.14 "HgN/A
5:00 AM57 °FCool.2 mph78%30.14 "HgN/A
4:00 AM57 °FCool.3 mph82%30.14 "HgN/A
3:00 AM57 °FCool.5 mph83%30.16 "HgN/A
2:00 AM58 °FPassing clouds.7 mph83%30.16 "Hg16 mi
1:00 AM58 °FCool.3 mph87%30.17 "HgN/A
12:00 AM58 °FCool.1 mph80%30.17 "HgN/A
Weather by CustomWeather, © 2016

See weather overviewHow to use our weather pages